2022-03-29 00:02:59 r, 19.52m,0000000001Hz,0000351836c,0000000.764s, 012.8C,00002191
2022-03-29 00:13:00 r, 19.51m,0000000001Hz,0000347937c,0000000.755s, 012.8C,00002191
2022-03-29 00:23:02 r, 19.25m,0000000002Hz,0000272483c,0000000.591s, 012.5C,00002191
2022-03-29 00:32:59 r, 19.01m,0000000002Hz,0000219992c,0000000.477s, 012.5C,00002191
2022-03-29 00:42:59 r, 19.07m,0000000002Hz,0000230528c,0000000.500s, 012.8C,00002191
2022-03-29 00:53:00 r, 19.15m,0000000001Hz,0000248494c,0000000.539s, 012.8C,00002191
2022-03-29 01:02:59 r, 19.18m,0000000002Hz,0000254380c,0000000.552s, 012.8C,00002191
2022-03-29 01:13:02 r, 19.18m,0000000002Hz,0000256564c,0000000.557s, 012.8C,00002191
2022-03-29 01:23:00 r, 19.30m,0000000001Hz,0000285295c,0000000.619s, 012.8C,00002191
2022-03-29 01:32:59 r, 19.55m,0000000001Hz,0000360105c,0000000.781s, 012.8C,00002191
2022-03-29 01:43:00 r, 19.96m,0000000001Hz,0000526136c,0000001.142s, 012.8C,00002191
2022-03-29 01:53:00 r, 20.20m,0000000001Hz,0000652577c,0000001.416s, 012.5C,00002191
2022-03-29 02:02:59 r, 20.15m,0000000001Hz,0000626802c,0000001.360s, 012.2C,00002191
2022-03-29 02:12:59 r, 20.10m,0000000001Hz,0000596159c,0000001.294s, 012.2C,00002191
2022-03-29 02:23:02 r, 20.12m,0000000001Hz,0000609271c,0000001.322s, 012.2C,00002191
2022-03-29 02:32:59 r, 20.23m,0000000001Hz,0000664925c,0000001.443s, 011.9C,00002191
2022-03-29 02:42:59 r, 20.30m,0000000001Hz,0000715157c,0000001.552s, 011.9C,00002191
2022-03-29 02:53:01 r, 20.10m,0000000000Hz,0000599856c,0000001.302s, 011.9C,00002191
2022-03-29 03:02:59 r, 19.67m,0000000001Hz,0000400139c,0000000.868s, 011.9C,00002191
2022-03-29 03:12:59 r, 19.92m,0000000001Hz,0000505594c,0000001.097s, 012.2C,00002191
2022-03-29 03:23:00 r, 19.55m,0000000001Hz,0000358813c,0000000.779s, 012.2C,00002191
2022-03-29 03:32:59 r, 19.50m,0000000002Hz,0000342604c,0000000.743s, 012.5C,00002191
2022-03-29 03:42:59 r, 19.18m,0000000002Hz,0000256159c,0000000.556s, 012.8C,00002191
2022-03-29 03:53:00 r, 18.82m,0000000002Hz,0000182334c,0000000.396s, 012.8C,00002191
2022-03-29 04:02:59 r, 18.53m,0000000003Hz,0000142340c,0000000.309s, 013.2C,00002191
2022-03-29 04:12:59 r, 18.66m,0000000003Hz,0000158946c,0000000.345s, 013.2C,00002191
2022-03-29 04:23:01 r, 18.77m,0000000002Hz,0000176619c,0000000.383s, 013.2C,00002191
2022-03-29 04:33:00 r, 18.96m,0000000002Hz,0000208256c,0000000.452s, 013.2C,00002191
2022-03-29 04:42:59 r, 18.58m,0000000003Hz,0000149433c,0000000.324s, 013.2C,00002191
2022-03-29 04:53:01 r, 19.01m,0000000002Hz,0000217104c,0000000.471s, 013.5C,00002191
2022-03-29 05:03:00 r, 19.37m,0000000001Hz,0000303523c,0000000.659s, 013.2C,00002191
2022-03-29 05:12:59 r, 19.67m,0000000001Hz,0000400289c,0000000.869s, 013.2C,00002191
2022-03-29 05:23:00 r, 19.33m,0000000002Hz,0000293563c,0000000.637s, 013.2C,00002191
2022-03-29 05:33:00 r, 18.58m,0000000003Hz,0000148913c,0000000.323s, 013.2C,00002191
2022-03-29 05:42:59 r, 18.40m,0000000003Hz,0000125596c,0000000.273s, 013.2C,00002191
2022-03-29 05:53:00 r, 18.20m,0000000004Hz,0000104338c,0000000.226s, 013.2C,00002191
2022-03-29 06:03:00 r, 18.29m,0000000004Hz,0000113392c,0000000.246s, 013.2C,00002191
2022-03-29 06:12:59 r, 17.78m,0000000006Hz,0000070853c,0000000.154s, 013.2C,00002191
2022-03-29 06:23:00 r, 16.58m,0000000020Hz,0000023514c,0000000.051s, 013.2C,00002191
2022-03-29 06:33:02 r, 14.82m,0000000099Hz,0000004646c,0000000.010s, 013.2C,00002191
2022-03-29 06:42:59 r, 12.86m,0000000605Hz,0000000000c,0000000.000s, 012.8C,00002191
2022-03-29 06:53:01 r, 10.58m,0000004965Hz,0000000000c,0000000.000s, 013.2C,00002191
2022-03-29 07:03:00 r, 08.97m,0000021944Hz,0000000000c,0000000.000s, 012.8C,00002191
2022-03-29 07:12:59 r, 08.09m,0000049010Hz,0000000000c,0000000.000s, 012.8C,00002191
2022-03-29 07:23:01 r, 07.07m,0000125029Hz,0000000000c,0000000.000s, 013.2C,00002191
2022-03-29 07:33:00 r, 06.12m,0000301321Hz,0000000000c,0000000.000s, 013.2C,00002191
2022-03-29 07:42:59 r, 00.00m,0000463621Hz,0000000000c,0000000.000s, 013.5C,00002191
2022-03-29 07:53:00 r, 00.00m,0000597975Hz,0000000000c,0000000.000s, 013.5C,00002191
2022-03-29 08:03:00 r, 00.00m,0000597870Hz,0000000000c,0000000.000s, 013.8C,00002191
2022-03-29 08:12:59 r, 00.00m,0000597843Hz,0000000000c,0000000.000s, 013.8C,00002191
2022-03-29 08:23:00 r, 00.00m,0000597871Hz,0000000000c,0000000.000s, 014.5C,00002191
2022-03-29 08:33:00 r, 00.00m,0000597791Hz,0000000000c,0000000.000s, 014.8C,00002191
2022-03-29 08:42:59 r, 00.00m,0000597751Hz,0000000000c,0000000.000s, 015.7C,00002191
2022-03-29 08:53:00 r, 00.00m,0000597657Hz,0000000000c,0000000.000s, 016.7C,00002191
2022-03-29 09:03:02 r, 00.00m,0000597794Hz,0000000000c,0000000.000s, 016.7C,00002191
2022-03-29 09:12:59 r, 00.00m,0000597728Hz,0000000000c,0000000.000s, 016.4C,00002191
2022-03-29 09:23:02 r, 00.00m,0000597763Hz,0000000000c,0000000.000s, 016.4C,00002191
2022-03-29 09:33:00 r, 00.00m,0000597729Hz,0000000000c,0000000.000s, 017.0C,00002191
2022-03-29 09:42:59 r, 00.00m,0000597460Hz,0000000000c,0000000.000s, 017.7C,00002191
2022-03-29 09:53:01 r, 00.00m,0000597340Hz,0000000000c,0000000.000s, 019.0C,00002191
2022-03-29 10:03:00 r, 00.00m,0000597251Hz,0000000000c,0000000.000s, 019.6C,00002191
2022-03-29 10:12:59 r, 00.00m,0000597199Hz,0000000000c,0000000.000s, 020.3C,00002191
2022-03-29 10:23:00 r, 00.00m,0000597159Hz,0000000000c,0000000.000s, 020.6C,00002191
2022-03-29 10:33:00 r, 00.00m,0000597153Hz,0000000000c,0000000.000s, 020.6C,00002191
2022-03-29 10:42:59 r, 00.00m,0000597136Hz,0000000000c,0000000.000s, 020.6C,00002191
2022-03-29 10:52:59 r, 00.00m,0000597030Hz,0000000000c,0000000.000s, 021.2C,00002191
2022-03-29 11:03:02 r, 00.00m,0000596928Hz,0000000000c,0000000.000s, 022.2C,00002191
2022-03-29 11:12:59 r, 00.00m,0000596941Hz,0000000000c,0000000.000s, 022.8C,00002191
2022-03-29 11:22:59 r, 00.00m,0000596907Hz,0000000000c,0000000.000s, 023.2C,00002191
2022-03-29 11:32:59 r, 00.00m,0000596807Hz,0000000000c,0000000.000s, 023.8C,00002191
2022-03-29 11:42:59 r, 00.00m,0000596763Hz,0000000000c,0000000.000s, 024.1C,00002191
2022-03-29 11:53:02 r, 00.00m,0000596772Hz,0000000000c,0000000.000s, 024.1C,00002191
2022-03-29 12:03:00 r, 00.00m,0000596765Hz,0000000000c,0000000.000s, 024.1C,00002191
2022-03-29 12:12:59 r, 00.00m,0000596681Hz,0000000000c,0000000.000s, 024.4C,00002191
2022-03-29 12:23:00 r, 00.00m,0000596592Hz,0000000000c,0000000.000s, 025.1C,00002191
2022-03-29 12:33:00 r, 00.00m,0000596578Hz,0000000000c,0000000.000s, 025.1C,00002191
2022-03-29 12:42:59 r, 00.00m,0000596595Hz,0000000000c,0000000.000s, 024.8C,00002191
2022-03-29 12:52:59 r, 00.00m,0000596596Hz,0000000000c,0000000.000s, 024.4C,00002191
2022-03-29 13:03:02 r, 00.00m,0000596544Hz,0000000000c,0000000.000s, 025.7C,00002191
2022-03-29 13:12:59 r, 00.00m,0000596542Hz,0000000000c,0000000.000s, 025.4C,00002191
2022-03-29 13:23:01 r, 00.00m,0000596478Hz,0000000000c,0000000.000s, 025.4C,00002191
2022-03-29 13:33:00 r, 00.00m,0000596432Hz,0000000000c,0000000.000s, 026.7C,00002191
2022-03-29 13:42:59 r, 00.00m,0000596219Hz,0000000000c,0000000.000s, 027.0C,00002191
2022-03-29 13:53:02 r, 00.00m,0000596403Hz,0000000000c,0000000.000s, 026.7C,00002191
2022-03-29 14:03:00 r, 00.00m,0000596404Hz,0000000000c,0000000.000s, 026.7C,00002191
2022-03-29 14:12:59 r, 00.00m,0000596506Hz,0000000000c,0000000.000s, 026.1C,00002191
2022-03-29 14:23:02 r, 00.00m,0000596769Hz,0000000000c,0000000.000s, 025.1C,00002191
2022-03-29 14:33:00 r, 00.00m,0000596765Hz,0000000000c,0000000.000s, 023.5C,00002191
2022-03-29 14:42:59 r, 00.00m,0000597007Hz,0000000000c,0000000.000s, 022.5C,00002191
2022-03-29 14:53:00 r, 00.00m,0000596976Hz,0000000000c,0000000.000s, 021.5C,00002191
2022-03-29 15:03:01 r, 00.00m,0000597093Hz,0000000000c,0000000.000s, 021.2C,00002191
2022-03-29 15:12:59 r, 00.00m,0000597132Hz,0000000000c,0000000.000s, 021.2C,00002191
2022-03-29 15:22:59 r, 00.00m,0000596998Hz,0000000000c,0000000.000s, 021.2C,00002191
2022-03-29 15:33:02 r, 00.00m,0000597081Hz,0000000000c,0000000.000s, 020.9C,00002191
2022-03-29 15:42:59 r, 00.00m,0000597127Hz,0000000000c,0000000.000s, 020.6C,00002191
2022-03-29 15:53:02 r, 00.00m,0000597239Hz,0000000000c,0000000.000s, 020.3C,00002191
2022-03-29 16:03:00 r, 00.00m,0000597161Hz,0000000000c,0000000.000s, 020.6C,00002191
2022-03-29 16:12:59 r, 00.00m,0000597288Hz,0000000000c,0000000.000s, 020.3C,00002191
2022-03-29 16:23:02 r, 00.00m,0000597317Hz,0000000000c,0000000.000s, 019.0C,00002191
2022-03-29 16:33:00 r, 00.00m,0000597497Hz,0000000000c,0000000.000s, 017.7C,00002191
2022-03-29 16:42:59 r, 00.00m,0000597484Hz,0000000000c,0000000.000s, 016.7C,00002191
2022-03-29 16:53:00 r, 00.00m,0000597703Hz,0000000000c,0000000.000s, 015.7C,00002191
2022-03-29 17:03:01 r, 00.00m,0000597761Hz,0000000000c,0000000.000s, 014.8C,00002191
2022-03-29 17:12:59 r, 00.00m,0000541427Hz,0000000000c,0000000.000s, 014.5C,00002191
2022-03-29 17:22:59 r, 00.00m,0000485315Hz,0000000000c,0000000.000s, 014.1C,00002191
2022-03-29 17:33:02 r, 05.90m,0000367772Hz,0000000000c,0000000.000s, 014.1C,00002191
2022-03-29 17:42:59 r, 05.95m,0000354250Hz,0000000000c,0000000.000s, 014.1C,00002191
2022-03-29 17:53:01 r, 00.00m,0000449011Hz,0000000000c,0000000.000s, 014.1C,00002191
2022-03-29 18:03:00 r, 05.86m,0000383110Hz,0000000000c,0000000.000s, 014.5C,00002191
2022-03-29 18:12:59 r, 06.24m,0000270768Hz,0000000000c,0000000.000s, 014.8C,00002191
2022-03-29 18:23:02 r, 06.28m,0000260211Hz,0000000000c,0000000.000s, 014.5C,00002191
2022-03-29 18:33:00 r, 06.09m,0000309551Hz,0000000000c,0000000.000s, 014.8C,00002191
2022-03-29 18:42:59 r, 06.33m,0000248058Hz,0000000000c,0000000.000s, 014.5C,00002191
2022-03-29 18:52:59 r, 06.62m,0000189568Hz,0000000000c,0000000.000s, 014.5C,00002191
2022-03-29 19:03:00 r, 06.86m,0000153305Hz,0000000000c,0000000.000s, 014.5C,00002191
2022-03-29 19:12:59 r, 06.98m,0000136364Hz,0000000000c,0000000.000s, 014.1C,00002191
2022-03-29 19:22:59 r, 07.22m,0000109921Hz,0000000000c,0000000.000s, 014.5C,00002191
2022-03-29 19:33:01 r, 07.73m,0000068519Hz,0000000000c,0000000.000s, 014.1C,00002191
2022-03-29 19:42:59 r, 08.38m,0000037771Hz,0000000000c,0000000.000s, 014.1C,00002191
2022-03-29 19:52:59 r, 09.25m,0000016869Hz,0000000000c,0000000.000s, 014.1C,00002191
2022-03-29 20:02:59 r, 10.45m,0000005596Hz,0000000000c,0000000.000s, 014.1C,00002191
2022-03-29 20:12:59 r, 12.27m,0000001049Hz,0000000000c,0000000.000s, 013.8C,00002191
2022-03-29 20:22:59 r, 14.40m,0000000147Hz,0000000000c,0000000.000s, 013.8C,00002191
2022-03-29 20:33:02 r, 16.40m,0000000023Hz,0000019961c,0000000.043s, 013.8C,00002191
2022-03-29 20:42:59 r, 17.87m,0000000006Hz,0000076813c,0000000.167s, 013.8C,00002191
2022-03-29 20:52:59 r, 18.64m,0000000003Hz,0000156749c,0000000.340s, 013.8C,00002191
2022-03-29 21:03:00 r, 18.81m,0000000002Hz,0000183464c,0000000.398s, 013.8C,00002191
2022-03-29 21:13:01 r, 18.88m,0000000003Hz,0000195784c,0000000.425s, 013.8C,00002191
2022-03-29 21:22:59 r, 18.81m,0000000002Hz,0000182429c,0000000.396s, 013.8C,00002191
2022-03-29 21:33:01 r, 18.83m,0000000003Hz,0000185988c,0000000.404s, 013.8C,00002191
2022-03-29 21:43:00 r, 18.74m,0000000003Hz,0000172894c,0000000.375s, 013.8C,00002191
2022-03-29 21:52:59 r, 18.70m,0000000003Hz,0000166776c,0000000.362s, 013.8C,00002191
2022-03-29 22:03:00 r, 18.69m,0000000002Hz,0000164139c,0000000.356s, 013.8C,00002191
2022-03-29 22:13:02 r, 18.68m,0000000003Hz,0000162942c,0000000.354s, 013.8C,00002191
2022-03-29 22:22:59 r, 18.61m,0000000003Hz,0000152604c,0000000.331s, 013.8C,00002191
2022-03-29 22:33:02 r, 18.59m,0000000004Hz,0000149538c,0000000.325s, 013.8C,00002191
2022-03-29 22:43:00 r, 18.59m,0000000003Hz,0000150526c,0000000.327s, 013.8C,00002191
2022-03-29 22:52:59 r, 18.60m,0000000003Hz,0000151382c,0000000.329s, 013.8C,00002191
2022-03-29 23:03:00 r, 18.63m,0000000003Hz,0000156331c,0000000.339s, 013.8C,00002191
2022-03-29 23:13:01 r, 18.65m,0000000003Hz,0000158371c,0000000.344s, 013.8C,00002191
2022-03-29 23:22:59 r, 18.56m,0000000004Hz,0000145774c,0000000.316s, 013.5C,00002191
2022-03-29 23:33:01 r, 18.53m,0000000003Hz,0000142075c,0000000.308s, 013.5C,00002191
2022-03-29 23:43:00 r, 18.46m,0000000004Hz,0000132329c,0000000.287s, 013.5C,00002191
2022-03-29 23:52:59 r, 18.37m,0000000004Hz,0000122794c,0000000.266s, 013.5C,00002191
